FW4110 Weather Reports


time (UTC)temp
C
wind
direction
speed
KPH
gust
KPH
rain 1hr
cm
rain 24hr
cm
rain mn
cm
humidity
%
barometer
mb
20260906220101 32 20 1.6 14.5 0.00 0.00 0.00 70 1015.3
20260906214559 32 12 3.2 9.7 0.00 0.00 0.00 71 1015.4
20260906213059 32 12 3.2 11.3 0.00 0.00 0.00 70 1015.5
20260906211550 32 144 1.6 12.9 0.00 0.00 0.00 71 1015.6
20260906210046 32 122 0.0 14.5 0.00 0.00 0.00 70 1015.7
20260906204544 32 113 6.4 14.5 0.00 0.00 0.00 69 1016.1
20260906203041 32 21 1.6 14.5 0.00 0.00 0.00 69 1016.1
20260906201559 31 171 3.2 17.7 0.00 0.00 0.00 70 1016.1
20260906200036 31 85 1.6 17.7 0.00 0.00 0.00 72 1016.1
20260906194538 31 24 3.2 20.9 0.00 0.00 0.00 71 1016.2
20260906193036 31 10 8.0 17.7 0.00 0.00 0.00 73 1016.4
20260906191533 31 147 1.6 17.7 0.00 0.00 0.00 75 1016.5
20260906190033 31 175 4.8 14.5 0.00 0.00 0.00 74 1016.5
20260906184525 31 37 1.6 19.3 0.00 0.00 0.00 75 1016.9
20260906183025 31 114 4.8 17.7 0.00 0.00 0.00 74 1017.3
20260906181622 31 104 6.4 14.5 0.00 0.00 0.00 73 1017.4
20260906180120 31 43 1.6 9.7 0.00 0.00 0.00 74 1017.4
20260906174516 31 106 1.6 16.1 0.00 0.00 0.00 73 1017.4
20260906173020 31 121 1.6 14.5 0.00 0.00 0.00 75 1017.5
20260906171510 31 64 1.6 11.3 0.00 0.00 0.00 76 1017.6
20260906170007 31 80 3.2 11.3 0.00 0.00 0.00 76 1017.8
20260906164503 31 348 0.0 9.7 0.00 0.00 0.00 78 1018.0
20260906163002 30 90 1.6 12.9 0.00 0.00 0.00 78 1018.0
20260906161601 30 83 1.6 17.7 0.00 0.00 0.00 79 1018.2
20260906160054 30 97 4.8 17.7 0.00 0.00 0.00 80 1018.2
20260906154553 30 18 3.2 11.3 0.00 0.00 0.00 80 1018.1
20260906153105 30 68 0.0 9.7 0.00 0.00 0.00 79 1018.0
20260906151544 28 69 1.6 12.9 0.00 0.00 0.00 79 1017.8
20260906150039 28 111 3.2 9.7 0.00 0.00 0.00 79 1017.4
20260906144537 28 341 1.6 12.9 0.00 0.00 0.00 80 1017.4
20260906143032 27 50 4.8 11.3 0.00 0.00 0.00 80 1017.2
20260906141528 27 123 1.6 9.7 0.00 0.00 0.00 79 1017.3
20260906140029 27 21 3.2 9.7 0.00 0.00 0.00 79 1017.2
20260906134522 27 39 3.2 9.7 0.00 0.00 0.00 79 1017.2
20260906133020 26 141 0.0 9.7 0.00 0.00 0.00 79 1017.4
20260906131517 26 17 0.0 3.2 0.00 0.00 0.00 78 1017.5
20260906130017 26 62 0.0 8.0 0.00 0.00 0.00 79 1017.4
20260906124516 25 50 0.0 0.0 0.00 0.00 0.00 78 1017.3
20260906123024 25 6 0.0 6.4 0.00 0.00 0.00 79 1017.1
20260906121505 -17 0.0 0.0 0.00 0.00 0.00 1017.1
20260906120107 -17 0.0 0.0 0.00 0.00 0.00 1016.9
20260906114604 -17 0.0 0.0 0.00 0.00 0.00 1016.7
20260906113049 -17 0.0 0.0 0.00 0.00 0.00 1016.6
20260906111551 -17 0.0 0.0 0.00 0.00 0.00 1016.7
20260906110037 -17 0.0 0.0 0.00 0.00 0.00 1016.6
20260906104534 -17 0.0 0.0 0.00 0.00 0.00 1016.3
20260906103027 -17 0.0 0.0 0.00 0.00 0.00 1016.4
20260906101521 -17 133 0.0 0.0 0.00 0.00 0.00 1016.2
20260906100018 25 28 0.0 3.2 0.00 0.00 0.00 84 1016.0
20260906094515 26 54 0.0 0.0 0.00 0.00 0.00 85 1016.0
20260906093026 26 54 0.0 1.6 0.00 0.00 0.00 85 1015.8
20260906091510 26 115 0.0 1.6 0.00 0.00 0.00 85 1015.6
20260906090009 26 47 0.0 1.6 0.00 0.00 0.00 85 1015.4
20260906084506 26 51 0.0 4.8 0.00 0.00 0.00 85 1015.4
20260906083005 26 152 0.0 1.6 0.00 0.00 0.00 85 1015.2
20260906081502 26 42 0.0 1.6 0.00 0.00 0.00 86 1015.3
20260906074607 26 36 0.0 0.0 0.00 0.00 0.00 86 1015.0
20260906073103 26 36 0.0 0.0 0.00 0.00 0.00 87 1015.1
20260906071552 26 36 0.0 0.0 0.00 0.00 0.00 87 1015.2
20260906070149 26 36 0.0 0.0 0.00 0.00 0.00 87 1015.3
20260906064546 26 36 0.0 0.0 0.00 0.00 0.00 88 1015.4
20260906063043 26 36 0.0 0.0 0.00 0.00 0.00 88 1015.5
20260906061550 26 36 0.0 0.0 0.00 0.00 0.00 88 1015.6
20260906060037 26 36 0.0 0.0 0.00 0.00 0.00 88 1015.6
20260906054534 26 36 0.0 0.0 0.00 0.00 0.00 88 1015.7
20260906053037 26 36 0.0 0.0 0.00 0.00 0.00 88 1015.7
20260906051528 27 36 0.0 0.0 0.00 0.00 0.00 88 1015.5
20260906050027 27 36 0.0 0.0 0.00 0.00 0.00 88 1015.5
20260906044523 27 36 0.0 0.0 0.00 0.00 0.00 88 1015.6
20260906043038 27 36 0.0 0.0 0.00 0.00 0.00 87 1015.4
20260906041520 27 36 0.0 0.0 0.00 0.00 0.00 87 1015.4
20260906040019 27 36 0.0 0.0 0.00 0.00 0.00 87 1015.2
20260906034523 27 36 0.0 0.0 0.00 0.00 0.00 87 1015.1
20260906033016 28 36 0.0 0.0 0.00 0.00 0.00 86 1015.1
20260906031514 28 36 0.0 0.0 0.00 0.00 0.00 85 1014.7
20260906030010 28 36 0.0 0.0 0.00 0.00 0.00 86 1014.6
20260906024509 28 36 0.0 0.0 0.00 0.00 0.00 85 1014.5
20260906023007 29 36 0.0 0.0 0.00 0.00 0.00 83 1014.1
20260906021505 29 36 0.0 0.0 0.00 0.00 0.00 82 1014.0
20260906020003 30 36 0.0 1.6 0.00 0.00 0.00 82 1013.8
20260906014503 30 36 0.0 0.0 0.00 0.00 0.00 82 1013.8
20260906013101 30 36 0.0 0.0 0.00 0.00 0.00 81 1013.5
20260906011559 30 36 0.0 0.0 0.00 0.00 0.00 80 1013.2
20260906010057 31 36 0.0 0.0 0.00 0.00 0.00 79 1013.1
20260906004608 32 36 0.0 0.0 0.00 0.00 0.00 77 1012.9
20260906003055 33 36 0.0 0.0 0.00 0.00 0.00 73 1013.0
20260906001552 34 36 0.0 3.2 0.00 0.00 0.00 70 1012.9
20260905234554 36 116 0.0 6.4 0.00 0.00 0.00 64 1012.9
20260905233045 36 42 1.6 4.8 0.00 0.00 0.00 63 1013.0
20260905231543 36 3 0.0 11.3 0.00 0.00 0.00 63 1013.1
20260905230044 36 40 1.6 9.7 0.00 0.00 0.00 62 1013.0
20260905224546 37 26 3.2 9.7 0.00 0.00 0.00 61 1012.8
20260905223040 37 14 3.2 9.7 0.00 0.00 0.00 62 1012.9
20260905221542 37 342 4.8 11.3 0.00 0.00 0.00 59 1012.8